EW7736 Weather Reports


Display with metric or nautical units.
time (UTC)temp
F
wind
direction
speed
MPH
gust
MPH
rain 1hr
in
rain 24hr
in
rain mn
in
humidity
%
barometer
mb
20260906200459 77 167 0.0 0.0 0.00 0.00 0.00 54 1015.9
20260906195435 76 131 0.0 4.0 0.00 0.00 0.00 52 1015.9
20260906194424 76 181 0.0 4.0 0.00 0.00 0.00 54 1016.0
20260906192249 76 165 0.0 1.0 0.00 0.00 0.00 55 1016.1
20260906191256 76 150 0.0 0.0 0.00 0.00 0.00 57 1016.2
20260906185141 76 181 0.0 4.0 0.00 0.00 0.00 54 1016.1
20260906184123 76 153 0.0 0.0 0.00 0.00 0.00 54 1016.3
20260906183148 77 155 0.0 2.0 0.00 0.00 0.00 53 1016.3
20260906182128 77 222 0.0 4.0 0.00 0.00 0.00 54 1016.3
20260906181138 77 160 0.0 4.0 0.00 0.00 0.00 54 1016.3
20260906180113 77 127 0.0 4.0 0.00 0.00 0.00 54 1016.3
20260906175114 77 325 0.0 4.0 0.00 0.00 0.00 55 1016.3
20260906174057 77 198 0.0 5.0 0.00 0.00 0.00 55 1016.3
20260906173057 77 307 0.0 5.0 0.00 0.00 0.00 56 1016.3
20260906170921 77 137 0.0 3.0 0.00 0.00 0.00 56 1016.4
20260906165915 77 173 0.0 6.0 0.00 0.00 0.00 55 1016.5
20260906164843 77 347 0.0 6.0 0.00 0.00 0.00 54 1016.6
20260906163850 77 169 0.0 3.0 0.00 0.00 0.00 56 1016.6
20260906162857 77 193 0.0 2.0 0.00 0.00 0.00 58 1016.7
20260906161836 78 126 0.0 1.0 0.00 0.00 0.00 61 1016.7
20260906160827 77 113 0.0 4.0 0.00 0.00 0.00 62 1016.8
20260906155850 77 139 0.0 1.0 0.00 0.00 0.00 62 1016.8
20260906154849 76 164 0.0 1.0 0.00 0.00 0.00 66 1016.8
20260906153817 75 131 0.0 4.0 0.00 0.00 0.00 67 1016.8
20260906151636 75 132 0.0 5.0 0.00 0.00 0.00 69 1016.8
20260906150630 74 47 0.0 2.0 0.00 0.00 0.00 69 1016.7
20260906145648 74 130 0.0 0.0 0.00 0.00 0.00 70 1016.7
20260906143553 73 128 0.0 3.0 0.00 0.00 0.00 71 1016.5
20260906142543 72 200 0.0 0.0 0.00 0.00 0.00 74 1016.5
20260906141530 71 152 0.0 1.0 0.00 0.00 0.00 74 1016.5
20260906140500 70 124 0.0 3.0 0.00 0.00 0.00 75 1016.4
20260906135435 68 193 0.0 1.0 0.00 0.00 0.00 76 1016.4
20260906132148 66 141 0.0 0.0 0.00 0.00 0.00 68 1016.2
20260906131153 64 142 0.0 0.0 0.00 0.00 0.00 44 1016.2
20260906130206 63 169 0.0 0.0 0.00 0.00 0.00 36 1016.2
20260906125138 62 186 0.0 0.0 0.00 0.00 0.00 31 1016.1
20260906124115 61 217 0.0 0.0 0.00 0.00 0.00 20 1016.1
20260906121917 60 244 0.0 1.0 0.00 0.00 0.00 1 1015.8
20260906120941 60 186 0.0 0.0 0.00 0.00 0.00 1 1015.6
20260906115946 59 186 0.0 0.0 0.00 0.00 0.00 1 1015.5
20260906115009 59 186 0.0 0.0 0.00 0.00 0.00 1 1015.5
20260906114026 58 186 0.0 0.0 0.00 0.00 0.00 1 1015.3
20260906113029 58 186 0.0 0.0 0.00 0.00 0.00 1 1015.2
20260906110950 58 186 0.0 0.0 0.00 0.00 0.00 3 1015.0
20260906105919 58 186 0.0 0.0 0.00 0.00 0.00 3 1014.9
20260906104938 58 186 0.0 0.0 0.00 0.00 0.00 7 1014.8
20260906103908 58 186 0.0 0.0 0.00 0.00 0.00 11 1014.7
20260906102837 58 186 0.0 0.0 0.00 0.00 0.00 11 1014.6
20260906101853 58 186 0.0 0.0 0.00 0.00 0.00 14 1014.6
20260906100907 58 186 0.0 0.0 0.00 0.00 0.00 19 1014.6
20260906095925 58 186 0.0 0.0 0.00 0.00 0.00 21 1014.6
20260906094853 59 186 0.0 0.0 0.00 0.00 0.00 23 1014.5
20260906092700 59 186 0.0 0.0 0.00 0.00 0.00 31 1014.6
20260906091711 59 186 0.0 0.0 0.00 0.00 0.00 31 1014.4
20260906085638 59 186 0.0 0.0 0.00 0.00 0.00 39 1014.3
20260906084630 59 186 0.0 0.0 0.00 0.00 0.00 40 1014.3
20260906083600 59 186 0.0 0.0 0.00 0.00 0.00 46 1014.3
20260906082616 60 186 0.0 0.0 0.00 0.00 0.00 45 1014.3
20260906081617 60 186 0.0 0.0 0.00 0.00 0.00 46 1014.3
20260906075525 60 186 0.0 0.0 0.00 0.00 0.00 45 1014.0
20260906074500 60 186 0.0 0.0 0.00 0.00 0.00 47 1014.0
20260906073503 60 186 0.0 0.0 0.00 0.00 0.00 54 1013.9
20260906072448 60 186 0.0 0.0 0.00 0.00 0.00 55 1014.0
20260906071414 61 186 0.0 0.0 0.00 0.00 0.00 59 1013.9
20260906070407 61 186 0.0 0.0 0.00 0.00 0.00 58 1014.0
20260906065355 61 186 0.0 0.0 0.00 0.00 0.00 59 1013.9
20260906064411 61 186 0.0 0.0 0.00 0.00 0.00 62 1013.9
20260906063415 62 186 0.0 0.0 0.00 0.00 0.00 63 1013.9
20260906062415 62 186 0.0 0.0 0.00 0.00 0.00 65 1013.9
20260906061402 62 186 0.0 0.0 0.00 0.00 0.00 68 1013.8
20260906060412 63 186 0.0 0.0 0.00 0.00 0.00 69 1013.8
20260906055403 63 186 0.0 0.0 0.00 0.00 0.00 69 1013.8
20260906054418 63 186 0.0 0.0 0.00 0.00 0.00 70 1013.8
20260906053356 63 186 0.0 0.0 0.00 0.00 0.00 70 1013.8
20260906052406 64 186 0.0 0.0 0.00 0.00 0.00 70 1014.0
20260906051348 64 186 0.0 0.0 0.00 0.00 0.00 69 1013.9
20260906050400 64 186 0.0 0.0 0.00 0.00 0.00 69 1013.8
20260906044225 65 186 0.0 0.0 0.00 0.00 0.00 67 1014.0
20260906043240 66 186 0.0 0.0 0.00 0.00 0.00 70 1014.0
20260906042256 65 186 0.0 0.0 0.00 0.00 0.00 73 1014.0
20260906041239 66 186 0.0 0.0 0.00 0.00 0.00 73 1014.0
20260906032850 67 129 0.0 0.0 0.00 0.00 0.00 59 1014.1
20260906031829 67 129 0.0 0.0 0.00 0.00 0.00 60 1014.2
20260906030816 67 129 0.0 0.0 0.00 0.00 0.00 61 1014.2
20260906025752 67 129 0.0 0.0 0.00 0.00 0.00 62 1014.0
20260906024724 67 129 0.0 0.0 0.00 0.00 0.00 62 1014.0
20260906023724 68 129 0.0 0.0 0.00 0.00 0.00 61 1014.0
20260906022738 68 129 0.0 0.0 0.00 0.00 0.00 58 1013.9
20260906021726 68 129 0.0 0.0 0.00 0.00 0.00 60 1013.8
20260906014452 70 129 0.0 0.0 0.00 0.00 0.00 64 1013.6
20260906013442 70 129 0.0 0.0 0.00 0.00 0.00 67 1013.6
20260906012441 70 129 0.0 0.0 0.00 0.00 0.00 69 1013.4
20260906011504 70 129 0.0 0.0 0.00 0.00 0.00 70 1013.4
20260906010511 71 129 0.0 0.0 0.00 0.00 0.00 71 1013.3
20260906005516 71 129 0.0 0.0 0.00 0.00 0.00 71 1013.3
20260906004528 71 129 0.0 0.0 0.00 0.00 0.00 70 1013.2
20260906003511 71 129 0.0 0.0 0.00 0.00 0.00 69 1013.1
20260906001321 72 129 0.0 0.0 0.00 0.00 0.00 73 1012.8
20260906000328 72 129 0.0 0.0 0.00 0.00 0.00 75 1012.9
20260905234159 73 129 0.0 0.0 0.00 0.00 0.00 76 1012.8
20260905233135 74 129 0.0 0.0 0.00 0.00 0.00 76 1012.9
20260905231020 75 129 0.0 0.0 0.00 0.00 0.00 76 1012.8
20260905225946 75 129 0.0 0.0 0.00 0.00 0.00 75 1012.8
20260905221558 78 129 0.0 2.0 0.00 0.00 0.00 71 1012.5
20260905220553 78 146 0.0 0.0 0.00 0.00 0.00 73 1012.3
20260905215534 77 122 0.0 2.0 0.00 0.00 0.00 73 1012.3
20260905214504 77 168 0.0 0.0 0.00 0.00 0.00 74 1012.1
20260905213440 77 119 0.0 1.0 0.00 0.00 0.00 73 1012.2
20260905211415 77 130 0.0 0.0 0.00 0.00 0.00 74 1012.0
20260905210343 78 124 0.0 2.0 0.00 0.00 0.00 74 1012.0
20260905205327 78 135 0.0 4.0 0.00 0.00 0.00 74 1012.0
20260905204347 78 126 0.0 3.0 0.00 0.00 0.00 72 1012.1
20260905202226 77 163 0.0 1.0 0.00 0.00 0.00 75 1012.2
20260905201222 77 122 0.0 2.0 0.00 0.00 0.00 75 1012.3